Location: Newark
(12.5331°N, 56.4669°W)
Time: 21:49:00
(UTC+00:00)

Hubble Space Telescope - Visible Passes

Search period start: 26 January 2020 00:00
Search period end: 05 February 2020 00:00
Orbit: 536 x 540 km, 28.5° (Epoch: 25 January)

Date Brightness Start Highest point End Pass type
(mag) Time Alt. Az. Time Alt. Az. Time Alt. Az.
26 Jan 3.8 07:46:34 13° ESE 07:46:34 13° ESE 07:47:32 10° ESE visible
26 Jan 0.7 09:21:58 10° WSW 09:26:03 88° NW 09:30:11 10° ENE visible
27 Jan 4.1 07:37:31 10° E 07:37:31 10° E 07:37:35 10° E visible
27 Jan 0.7 09:12:54 21° WSW 09:15:28 64° NNW 09:19:31 10° NE visible
28 Jan 1.1 09:03:41 35° WNW 09:04:52 46° NNW 09:08:50 10° NE visible
29 Jan 1.5 08:54:17 35° NNW 08:54:18 35° NNW 08:58:05 10° NE visible
30 Jan 2.2 08:44:45 24° N 08:44:45 24° N 08:47:17 10° NE visible
31 Jan 2.9 08:35:04 16° NNE 08:35:04 16° NNE 08:36:26 10° NNE visible
01 Feb 3.4 08:25:18 11° NNE 08:25:18 11° NNE 08:25:33 10° NNE visible
